Year,Month,Day,Hour,Minute,Value (Times are PST for temperature in C)
2012,12,02,00,00,6.50
2012,12,02,00,01,6.50
2012,12,02,00,02,6.50
2012,12,02,00,03,6.50
2012,12,02,00,04,6.50
2012,12,02,00,05,6.50
2012,12,02,00,06,6.50
2012,12,02,00,07,6.60
2012,12,02,00,08,6.60
2012,12,02,00,09,6.60
2012,12,02,00,10,6.60
2012,12,02,00,11,6.60
2012,12,02,00,12,6.60
2012,12,02,00,13,6.60
2012,12,02,00,14,6.60
2012,12,02,00,15,6.60
2012,12,02,00,16,6.60
2012,12,02,00,17,6.60
2012,12,02,00,18,6.60
2012,12,02,00,19,6.60
2012,12,02,00,20,6.60
2012,12,02,00,21,6.60
2012,12,02,00,22,6.60
2012,12,02,00,23,6.60
2012,12,02,00,24,6.60
2012,12,02,00,25,6.60
2012,12,02,00,26,6.60
2012,12,02,00,27,6.50
2012,12,02,00,28,6.50
2012,12,02,00,29,6.50
2012,12,02,00,30,6.50
2012,12,02,00,31,6.50
2012,12,02,00,32,6.50
2012,12,02,00,33,6.40
2012,12,02,00,34,6.40
2012,12,02,00,35,6.40
2012,12,02,00,36,6.40
2012,12,02,00,37,6.40
2012,12,02,00,38,6.40
2012,12,02,00,39,6.30
2012,12,02,00,40,6.30
2012,12,02,00,41,6.30
2012,12,02,00,42,6.30
2012,12,02,00,43,6.30
2012,12,02,00,44,6.30
2012,12,02,00,45,6.30
2012,12,02,00,46,6.30
2012,12,02,00,47,6.30
2012,12,02,00,48,6.30
2012,12,02,00,49,6.30
2012,12,02,00,50,6.30
2012,12,02,00,51,6.30
2012,12,02,00,52,6.20
2012,12,02,00,53,6.20
2012,12,02,00,54,6.20
2012,12,02,00,55,6.20
2012,12,02,00,56,6.20
2012,12,02,00,57,6.20
2012,12,02,00,58,6.20
2012,12,02,00,59,6.20
2012,12,02,01,00,6.20
2012,12,02,01,01,6.20
2012,12,02,01,02,6.20
2012,12,02,01,03,6.20
2012,12,02,01,04,6.20
2012,12,02,01,05,6.20
2012,12,02,01,06,6.10
2012,12,02,01,07,6.10
2012,12,02,01,08,6.10
2012,12,02,01,09,6.20
2012,12,02,01,10,6.20
2012,12,02,01,11,6.20
2012,12,02,01,12,6.20
2012,12,02,01,13,6.20
2012,12,02,01,14,6.20
2012,12,02,01,15,6.20
2012,12,02,01,16,6.20
2012,12,02,01,17,6.20
2012,12,02,01,18,6.20
2012,12,02,01,19,6.30
2012,12,02,01,20,6.30
2012,12,02,01,21,6.30
2012,12,02,01,22,6.30
2012,12,02,01,23,6.30
2012,12,02,01,24,6.30
2012,12,02,01,25,6.30
2012,12,02,01,26,6.30
2012,12,02,01,27,6.30
2012,12,02,01,28,6.40
2012,12,02,01,29,6.40
2012,12,02,01,30,6.40
2012,12,02,01,31,6.40
2012,12,02,01,32,6.40
2012,12,02,01,33,6.40
2012,12,02,01,34,6.40
2012,12,02,01,35,6.40
2012,12,02,01,36,6.40
2012,12,02,01,37,6.40
2012,12,02,01,38,6.40
2012,12,02,01,39,6.40
2012,12,02,01,40,6.40
2012,12,02,01,41,6.40
2012,12,02,01,42,6.40
2012,12,02,01,43,6.40
2012,12,02,01,44,6.40
2012,12,02,01,45,6.40
2012,12,02,01,46,6.40
2012,12,02,01,47,6.40
2012,12,02,01,48,6.40
2012,12,02,01,49,6.30
2012,12,02,01,50,6.30
2012,12,02,01,51,6.30
2012,12,02,01,52,6.30
2012,12,02,01,53,6.30
2012,12,02,01,54,6.30
2012,12,02,01,55,6.30
2012,12,02,01,56,6.30
2012,12,02,01,57,6.30
2012,12,02,01,58,6.30
2012,12,02,01,59,6.30
2012,12,02,02,00,6.30
2012,12,02,02,01,6.30
2012,12,02,02,02,6.30
2012,12,02,02,03,6.30
2012,12,02,02,04,6.30
2012,12,02,02,05,6.20
2012,12,02,02,06,6.20
2012,12,02,02,07,6.20
2012,12,02,02,08,6.20
2012,12,02,02,09,6.20
2012,12,02,02,10,6.20
2012,12,02,02,11,6.20
2012,12,02,02,12,6.20
2012,12,02,02,13,6.20
2012,12,02,02,14,6.20
2012,12,02,02,15,6.20
2012,12,02,02,16,6.20
2012,12,02,02,17,6.20
2012,12,02,02,18,6.20
2012,12,02,02,19,6.20
2012,12,02,02,20,6.20
2012,12,02,02,21,6.20
2012,12,02,02,22,6.20
2012,12,02,02,23,6.20
2012,12,02,02,24,6.20
2012,12,02,02,25,6.20
2012,12,02,02,26,6.20
2012,12,02,02,27,6.20
2012,12,02,02,28,6.20
2012,12,02,02,29,6.20
2012,12,02,02,30,6.20
2012,12,02,02,31,6.20
2012,12,02,02,32,6.20
2012,12,02,02,33,6.20
2012,12,02,02,34,6.20
2012,12,02,02,35,6.20
2012,12,02,02,36,6.20
2012,12,02,02,37,6.20
2012,12,02,02,38,6.20
2012,12,02,02,39,6.20
2012,12,02,02,40,6.20
2012,12,02,02,41,6.20
2012,12,02,02,42,6.20
2012,12,02,02,43,6.20
2012,12,02,02,44,6.20
2012,12,02,02,45,6.20
2012,12,02,02,46,6.20
2012,12,02,02,47,6.20
2012,12,02,02,48,6.20
2012,12,02,02,49,6.20
2012,12,02,02,50,6.20
2012,12,02,02,51,6.20
2012,12,02,02,52,6.10
2012,12,02,02,53,6.10
2012,12,02,02,54,6.10
2012,12,02,02,55,6.10
2012,12,02,02,56,6.10
2012,12,02,02,57,6.10
2012,12,02,02,58,6.10
2012,12,02,02,59,6.00
2012,12,02,03,00,6.00
2012,12,02,03,01,6.00
2012,12,02,03,02,6.00
2012,12,02,03,03,5.90
2012,12,02,03,04,5.90
2012,12,02,03,05,5.90
2012,12,02,03,06,5.90
2012,12,02,03,07,5.90
2012,12,02,03,08,5.90
2012,12,02,03,09,5.90
2012,12,02,03,10,5.90
2012,12,02,03,11,5.90
2012,12,02,03,12,5.90
2012,12,02,03,13,6.00
2012,12,02,03,14,5.90
2012,12,02,03,15,6.00
2012,12,02,03,16,6.00
2012,12,02,03,17,6.00
2012,12,02,03,18,6.00
2012,12,02,03,19,6.00
2012,12,02,03,20,6.00
2012,12,02,03,21,6.00
2012,12,02,03,22,6.00
2012,12,02,03,23,6.00
2012,12,02,03,24,6.00
2012,12,02,03,25,5.90
2012,12,02,03,26,5.90
2012,12,02,03,27,5.90
2012,12,02,03,28,5.90
2012,12,02,03,29,5.90
2012,12,02,03,30,5.90
2012,12,02,03,31,5.90
2012,12,02,03,32,5.90
2012,12,02,03,33,5.90
2012,12,02,03,34,5.90
2012,12,02,03,35,5.90
2012,12,02,03,36,5.90
2012,12,02,03,37,5.80
2012,12,02,03,38,5.80
2012,12,02,03,39,5.80
2012,12,02,03,40,5.80
2012,12,02,03,41,5.80
2012,12,02,03,42,5.80
2012,12,02,03,43,5.80
2012,12,02,03,44,5.80
2012,12,02,03,45,5.80
2012,12,02,03,46,5.80
2012,12,02,03,47,5.80
2012,12,02,03,48,5.70
2012,12,02,03,49,5.70
2012,12,02,03,50,5.70
2012,12,02,03,51,5.70
2012,12,02,03,52,5.70
2012,12,02,03,53,5.70
2012,12,02,03,54,5.70
2012,12,02,03,55,5.70
2012,12,02,03,56,5.70
2012,12,02,03,57,5.70
2012,12,02,03,58,5.70
2012,12,02,03,59,5.70
2012,12,02,04,00,5.70
2012,12,02,04,01,5.70
2012,12,02,04,02,5.70
2012,12,02,04,03,5.70
2012,12,02,04,04,5.70
2012,12,02,04,05,5.70
2012,12,02,04,06,5.70
2012,12,02,04,07,5.70
2012,12,02,04,08,5.70
2012,12,02,04,09,5.70
2012,12,02,04,10,5.70
2012,12,02,04,11,5.70
2012,12,02,04,12,5.70
2012,12,02,04,13,5.70
2012,12,02,04,14,5.70
2012,12,02,04,15,5.70
2012,12,02,04,16,5.70
2012,12,02,04,17,5.70
2012,12,02,04,18,5.70
2012,12,02,04,19,5.70
2012,12,02,04,20,5.70
2012,12,02,04,21,5.70
2012,12,02,04,22,5.70
2012,12,02,04,23,5.70
2012,12,02,04,24,5.70
2012,12,02,04,25,5.70
2012,12,02,04,26,5.70
2012,12,02,04,27,5.70
2012,12,02,04,28,5.70
2012,12,02,04,29,5.60
2012,12,02,04,30,5.60
2012,12,02,04,31,5.60
2012,12,02,04,32,5.60
2012,12,02,04,33,5.60
2012,12,02,04,34,5.60
2012,12,02,04,35,5.60
2012,12,02,04,36,5.60
2012,12,02,04,37,5.60
2012,12,02,04,38,5.60
2012,12,02,04,39,5.50
2012,12,02,04,40,5.50
2012,12,02,04,41,5.50
2012,12,02,04,42,5.50
2012,12,02,04,43,5.40
2012,12,02,04,44,5.40
2012,12,02,04,45,5.40
2012,12,02,04,46,5.40
2012,12,02,04,47,5.40
2012,12,02,04,48,5.40
2012,12,02,04,49,5.40
2012,12,02,04,50,5.40
2012,12,02,04,51,5.40
2012,12,02,04,52,5.40
2012,12,02,04,53,5.30
2012,12,02,04,54,5.30
2012,12,02,04,55,5.30
2012,12,02,04,56,5.30
2012,12,02,04,57,5.30
2012,12,02,04,58,5.30
2012,12,02,04,59,5.30
2012,12,02,05,00,5.30
2012,12,02,05,01,5.30
2012,12,02,05,02,5.30
2012,12,02,05,03,5.30
2012,12,02,05,04,5.30
2012,12,02,05,05,5.30
2012,12,02,05,06,5.30
2012,12,02,05,07,5.30
2012,12,02,05,08,5.30
2012,12,02,05,09,5.20
2012,12,02,05,10,5.20
2012,12,02,05,11,5.20
2012,12,02,05,12,5.20
2012,12,02,05,13,5.20
2012,12,02,05,14,5.20
2012,12,02,05,15,5.20
2012,12,02,05,16,5.20
2012,12,02,05,17,5.20
2012,12,02,05,18,5.20
2012,12,02,05,19,5.10
2012,12,02,05,20,5.10
2012,12,02,05,21,5.10
2012,12,02,05,22,5.10
2012,12,02,05,23,5.10
2012,12,02,05,24,5.10
2012,12,02,05,25,5.10
2012,12,02,05,26,5.10
2012,12,02,05,27,5.10
2012,12,02,05,28,5.10
2012,12,02,05,29,5.10
2012,12,02,05,30,5.10
2012,12,02,05,31,5.10
2012,12,02,05,32,5.10
2012,12,02,05,33,5.10
2012,12,02,05,34,5.10
2012,12,02,05,35,5.10
2012,12,02,05,36,5.10
2012,12,02,05,37,5.10
2012,12,02,05,38,5.10
2012,12,02,05,39,5.10
2012,12,02,05,40,5.10
2012,12,02,05,41,5.10
2012,12,02,05,42,5.10
2012,12,02,05,43,5.10
2012,12,02,05,44,5.10
2012,12,02,05,45,5.00
2012,12,02,05,46,5.00
2012,12,02,05,47,5.00
2012,12,02,05,48,5.00
2012,12,02,05,49,5.00
2012,12,02,05,50,5.00
2012,12,02,05,51,4.90
2012,12,02,05,52,4.90
2012,12,02,05,53,4.90
2012,12,02,05,54,4.90
2012,12,02,05,55,4.80
2012,12,02,05,56,4.80
2012,12,02,05,57,4.80
2012,12,02,05,58,4.80
2012,12,02,05,59,4.80
2012,12,02,06,00,4.80
2012,12,02,06,01,4.80
2012,12,02,06,02,4.70
2012,12,02,06,03,4.70
2012,12,02,06,04,4.70
2012,12,02,06,05,4.70
2012,12,02,06,06,4.80
2012,12,02,06,07,4.80
2012,12,02,06,08,4.80
2012,12,02,06,09,4.80
2012,12,02,06,10,4.80
2012,12,02,06,11,4.80
2012,12,02,06,12,4.80
2012,12,02,06,13,4.70
2012,12,02,06,14,4.70
2012,12,02,06,15,4.70
2012,12,02,06,16,4.70
2012,12,02,06,17,4.70
2012,12,02,06,18,4.70
2012,12,02,06,19,4.60
2012,12,02,06,20,4.60
2012,12,02,06,21,4.60
2012,12,02,06,22,4.60
2012,12,02,06,23,4.60
2012,12,02,06,24,4.60
2012,12,02,06,25,4.50
2012,12,02,06,26,4.50
2012,12,02,06,27,4.50
2012,12,02,06,28,4.50
2012,12,02,06,29,4.40
2012,12,02,06,30,4.40
2012,12,02,06,31,4.40
2012,12,02,06,32,4.30
2012,12,02,06,33,4.30
2012,12,02,06,34,4.30
2012,12,02,06,35,4.30
2012,12,02,06,36,4.30
2012,12,02,06,37,4.30
2012,12,02,06,38,4.30
2012,12,02,06,39,4.30
2012,12,02,06,40,4.30
2012,12,02,06,41,4.30
2012,12,02,06,42,4.30
2012,12,02,06,43,4.30
2012,12,02,06,44,4.30
2012,12,02,06,45,4.30
2012,12,02,06,46,4.30
2012,12,02,06,47,4.30
2012,12,02,06,48,4.30
2012,12,02,06,49,4.30
2012,12,02,06,50,4.30
2012,12,02,06,51,4.30
2012,12,02,06,52,4.30
2012,12,02,06,53,4.30
2012,12,02,06,54,4.30
2012,12,02,06,55,4.30
2012,12,02,06,56,4.30
2012,12,02,06,57,4.30
2012,12,02,06,58,4.20
2012,12,02,06,59,4.20
2012,12,02,07,00,4.20
2012,12,02,07,01,4.20
2012,12,02,07,02,4.20
2012,12,02,07,03,4.10
2012,12,02,07,04,4.10
2012,12,02,07,05,4.10
2012,12,02,07,06,4.10
2012,12,02,07,07,4.00
2012,12,02,07,08,4.00
2012,12,02,07,09,3.90
2012,12,02,07,10,3.90
2012,12,02,07,11,3.90
2012,12,02,07,12,3.90
2012,12,02,07,13,3.90
2012,12,02,07,14,3.90
2012,12,02,07,15,3.80
2012,12,02,07,16,3.80
2012,12,02,07,17,3.80
2012,12,02,07,18,3.80
2012,12,02,07,19,3.90
2012,12,02,07,20,3.90
2012,12,02,07,21,3.90
2012,12,02,07,22,3.90
2012,12,02,07,23,3.90
2012,12,02,07,24,3.90
2012,12,02,07,25,3.90
2012,12,02,07,26,3.80
2012,12,02,07,27,3.80
2012,12,02,07,28,3.80
2012,12,02,07,29,3.80
2012,12,02,07,30,3.80
2012,12,02,07,31,3.70
2012,12,02,07,32,3.70
2012,12,02,07,33,3.70
2012,12,02,07,34,3.80
2012,12,02,07,35,3.80
2012,12,02,07,36,3.80
2012,12,02,07,37,3.70
2012,12,02,07,38,3.70
2012,12,02,07,39,3.70
2012,12,02,07,40,3.70
2012,12,02,07,41,3.70
2012,12,02,07,42,3.70
2012,12,02,07,43,3.70
2012,12,02,07,44,3.60
2012,12,02,07,45,3.60
2012,12,02,07,46,3.60
2012,12,02,07,47,3.60
2012,12,02,07,48,3.60
2012,12,02,07,49,3.70
2012,12,02,07,50,3.70
2012,12,02,07,51,3.80
2012,12,02,07,52,3.80
2012,12,02,07,53,3.80
2012,12,02,07,54,3.70
2012,12,02,07,55,3.70
2012,12,02,07,56,3.60
2012,12,02,07,57,3.60
2012,12,02,07,58,3.60
2012,12,02,07,59,3.60
2012,12,02,08,00,3.60
2012,12,02,08,01,3.60
2012,12,02,08,02,3.60
2012,12,02,08,03,3.60
2012,12,02,08,04,3.60
2012,12,02,08,05,3.60
2012,12,02,08,06,3.60
2012,12,02,08,07,3.60
2012,12,02,08,08,3.60
2012,12,02,08,09,3.60
2012,12,02,08,10,3.60
2012,12,02,08,11,3.60
2012,12,02,08,12,3.50
2012,12,02,08,13,3.50
2012,12,02,08,14,3.50
2012,12,02,08,15,3.40
2012,12,02,08,16,3.40
2012,12,02,08,17,3.40
2012,12,02,08,18,3.40
2012,12,02,08,19,3.40
2012,12,02,08,20,3.40
2012,12,02,08,21,3.50
2012,12,02,08,22,3.50
2012,12,02,08,23,3.60
2012,12,02,08,24,3.60
2012,12,02,08,25,3.60
2012,12,02,08,26,3.70
2012,12,02,08,27,3.70
2012,12,02,08,28,3.70
2012,12,02,08,29,3.80
2012,12,02,08,30,3.80
2012,12,02,08,31,3.80
2012,12,02,08,32,3.80
2012,12,02,08,33,3.80
2012,12,02,08,34,3.80
2012,12,02,08,35,3.80
2012,12,02,08,36,3.80
2012,12,02,08,37,3.80
2012,12,02,08,38,3.90
2012,12,02,08,39,3.90
2012,12,02,08,40,3.90
2012,12,02,08,41,4.00
2012,12,02,08,42,4.00
2012,12,02,08,43,4.10
2012,12,02,08,44,4.10
2012,12,02,08,45,4.10
2012,12,02,08,46,4.20
2012,12,02,08,47,4.20
2012,12,02,08,48,4.20
2012,12,02,08,49,4.30
2012,12,02,08,50,4.30
2012,12,02,08,51,4.30
2012,12,02,08,52,4.40
2012,12,02,08,53,4.40
2012,12,02,08,54,4.40
2012,12,02,08,55,4.50
2012,12,02,08,56,4.50
2012,12,02,08,57,4.50
2012,12,02,08,58,4.60
2012,12,02,08,59,4.60
2012,12,02,09,00,4.60
2012,12,02,09,01,4.70
2012,12,02,09,02,4.70
2012,12,02,09,03,4.70
2012,12,02,09,04,4.70
2012,12,02,09,05,4.70
2012,12,02,09,06,4.60
2012,12,02,09,07,4.60
2012,12,02,09,08,4.60
2012,12,02,09,09,4.60
2012,12,02,09,10,4.60
2012,12,02,09,11,4.60
2012,12,02,09,12,4.60
2012,12,02,09,13,4.60
2012,12,02,09,14,4.60
2012,12,02,09,15,4.60
2012,12,02,09,16,4.60
2012,12,02,09,17,4.60
2012,12,02,09,18,4.60
2012,12,02,09,19,4.60
2012,12,02,09,20,4.60
2012,12,02,09,21,4.60
2012,12,02,09,22,4.60
2012,12,02,09,23,4.70
2012,12,02,09,24,4.70
2012,12,02,09,25,4.70
2012,12,02,09,26,4.70
2012,12,02,09,27,4.70
2012,12,02,09,28,4.70
2012,12,02,09,29,4.70
2012,12,02,09,30,4.70
2012,12,02,09,31,4.70
2012,12,02,09,32,4.80
2012,12,02,09,33,4.80
2012,12,02,09,34,4.80
2012,12,02,09,35,4.80
2012,12,02,09,36,4.80
2012,12,02,09,37,4.80
2012,12,02,09,38,4.90
2012,12,02,09,39,4.90
2012,12,02,09,40,4.90
2012,12,02,09,41,4.90
2012,12,02,09,42,4.90
2012,12,02,09,43,5.00
2012,12,02,09,44,5.00
2012,12,02,09,45,5.10
2012,12,02,09,46,5.10
2012,12,02,09,47,5.10
2012,12,02,09,48,5.10
2012,12,02,09,49,5.20
2012,12,02,09,50,5.20
2012,12,02,09,51,5.20
2012,12,02,09,52,5.20
2012,12,02,09,53,5.30
2012,12,02,09,54,5.30
2012,12,02,09,55,5.30
2012,12,02,09,56,5.30
2012,12,02,09,57,5.30
2012,12,02,09,58,5.40
2012,12,02,09,59,5.40
2012,12,02,10,00,5.40
2012,12,02,10,01,5.40
2012,12,02,10,02,5.50
2012,12,02,10,03,5.50
2012,12,02,10,04,5.50
2012,12,02,10,05,5.60
2012,12,02,10,06,5.60
2012,12,02,10,07,5.70
2012,12,02,10,08,5.70
2012,12,02,10,09,5.80
2012,12,02,10,10,5.80
2012,12,02,10,11,5.80
2012,12,02,10,12,5.90
2012,12,02,10,13,5.90
2012,12,02,10,14,6.00
2012,12,02,10,15,6.00
2012,12,02,10,16,6.10
2012,12,02,10,17,6.10
2012,12,02,10,18,6.10
2012,12,02,10,19,6.20
2012,12,02,10,20,6.20
2012,12,02,10,21,6.20
2012,12,02,10,22,6.30
2012,12,02,10,23,6.30
2012,12,02,10,24,6.40
2012,12,02,10,25,6.40
2012,12,02,10,26,6.50
2012,12,02,10,27,6.50
2012,12,02,10,28,6.60
2012,12,02,10,29,6.60
2012,12,02,10,30,6.60
2012,12,02,10,31,6.60
2012,12,02,10,32,6.60
2012,12,02,10,33,6.70
2012,12,02,10,34,6.70
2012,12,02,10,35,6.80
2012,12,02,10,36,6.80
2012,12,02,10,37,6.90
2012,12,02,10,38,6.90
2012,12,02,10,39,6.90
2012,12,02,10,40,6.90
2012,12,02,10,41,7.00
2012,12,02,10,42,7.00
2012,12,02,10,43,7.00
2012,12,02,10,44,7.10
2012,12,02,10,45,7.10
2012,12,02,10,46,7.10
2012,12,02,10,47,7.20
2012,12,02,10,48,7.20
2012,12,02,10,49,7.30
2012,12,02,10,50,7.30
2012,12,02,10,51,7.40
2012,12,02,10,52,7.50
2012,12,02,10,53,7.60
2012,12,02,10,54,7.70
2012,12,02,10,55,7.70
2012,12,02,10,56,7.80
2012,12,02,10,57,7.80
2012,12,02,10,58,7.90
2012,12,02,10,59,7.90
2012,12,02,11,00,8.00
2012,12,02,11,01,8.00
2012,12,02,11,02,8.10
2012,12,02,11,03,8.20
2012,12,02,11,04,8.30
2012,12,02,11,05,8.40
2012,12,02,11,06,8.40
2012,12,02,11,07,8.50
2012,12,02,11,08,8.60
2012,12,02,11,09,8.60
2012,12,02,11,10,8.60
2012,12,02,11,11,8.70
2012,12,02,11,12,8.70
2012,12,02,11,13,8.70
2012,12,02,11,14,8.80
2012,12,02,11,15,8.80
2012,12,02,11,16,8.90
2012,12,02,11,17,8.90
2012,12,02,11,18,8.90
2012,12,02,11,19,9.00
2012,12,02,11,20,9.00
2012,12,02,11,21,9.10
2012,12,02,11,22,9.10
2012,12,02,11,23,9.20
2012,12,02,11,24,9.20
2012,12,02,11,25,9.20
2012,12,02,11,26,9.30
2012,12,02,11,27,9.30
2012,12,02,11,28,9.30
2012,12,02,11,29,9.30
2012,12,02,11,30,9.30
2012,12,02,11,31,9.30
2012,12,02,11,32,9.30
2012,12,02,11,33,9.40
2012,12,02,11,34,9.40
2012,12,02,11,35,9.50
2012,12,02,11,36,9.50
2012,12,02,11,37,9.60
2012,12,02,11,38,9.60
2012,12,02,11,39,9.60
2012,12,02,11,40,9.60
2012,12,02,11,41,9.60
2012,12,02,11,42,9.70
2012,12,02,11,43,9.70
2012,12,02,11,44,9.70
2012,12,02,11,45,9.70
2012,12,02,11,46,9.80
2012,12,02,11,47,9.80
2012,12,02,11,48,9.90
2012,12,02,11,49,9.90
2012,12,02,11,50,10.00
2012,12,02,11,51,10.00
2012,12,02,11,52,10.10
2012,12,02,11,53,10.10
2012,12,02,11,54,10.10
2012,12,02,11,55,10.10
2012,12,02,11,56,10.10
2012,12,02,11,57,10.10
2012,12,02,11,58,10.10
2012,12,02,11,59,10.10
2012,12,02,12,00,10.10
2012,12,02,12,01,10.10
2012,12,02,12,02,10.20
2012,12,02,12,03,10.10
2012,12,02,12,04,10.10
2012,12,02,12,05,10.10
2012,12,02,12,06,10.00
2012,12,02,12,07,9.90
2012,12,02,12,08,9.90
2012,12,02,12,09,9.90
2012,12,02,12,10,9.90
2012,12,02,12,11,9.90
2012,12,02,12,12,9.90
2012,12,02,12,13,9.90
2012,12,02,12,14,9.90
2012,12,02,12,15,9.80
2012,12,02,12,16,9.70
2012,12,02,12,17,9.70
2012,12,02,12,18,9.70
2012,12,02,12,19,9.70
2012,12,02,12,20,9.70
2012,12,02,12,21,9.70
2012,12,02,12,22,9.70
2012,12,02,12,23,9.70
2012,12,02,12,24,9.80
2012,12,02,12,25,9.80
2012,12,02,12,26,9.80
2012,12,02,12,27,9.80
2012,12,02,12,28,9.80
2012,12,02,12,29,9.80
2012,12,02,12,30,9.90
2012,12,02,12,31,9.90
2012,12,02,12,32,9.90
2012,12,02,12,33,9.90
2012,12,02,12,34,9.90
2012,12,02,12,35,9.80
2012,12,02,12,36,9.80
2012,12,02,12,37,9.80
2012,12,02,12,38,9.80
2012,12,02,12,39,9.80
2012,12,02,12,40,9.80
2012,12,02,12,41,9.80
2012,12,02,12,42,9.80
2012,12,02,12,43,9.90
2012,12,02,12,44,9.80
2012,12,02,12,45,9.80
2012,12,02,12,46,9.80
2012,12,02,12,47,9.80
2012,12,02,12,48,9.80
2012,12,02,12,49,9.80
2012,12,02,12,50,9.80
2012,12,02,12,51,9.80
2012,12,02,12,52,9.80
2012,12,02,12,53,9.70
2012,12,02,12,54,9.70
2012,12,02,12,55,9.60
2012,12,02,12,56,9.60
2012,12,02,12,57,9.50
2012,12,02,12,58,9.50
2012,12,02,12,59,9.50
2012,12,02,13,00,9.50
2012,12,02,13,01,9.50
2012,12,02,13,02,9.40
2012,12,02,13,03,9.40
2012,12,02,13,04,9.40
2012,12,02,13,05,9.40
2012,12,02,13,06,9.40
2012,12,02,13,07,9.40
2012,12,02,13,08,9.40
2012,12,02,13,09,9.40
2012,12,02,13,10,9.40
2012,12,02,13,11,9.40
2012,12,02,13,12,9.40
2012,12,02,13,13,9.50
2012,12,02,13,14,9.50
2012,12,02,13,15,9.60
2012,12,02,13,16,9.60
2012,12,02,13,17,9.60
2012,12,02,13,18,9.70
2012,12,02,13,19,9.70
2012,12,02,13,20,9.70
2012,12,02,13,21,9.70
2012,12,02,13,22,9.70
2012,12,02,13,23,9.70
2012,12,02,13,24,9.70
2012,12,02,13,25,9.70
2012,12,02,13,26,9.70
2012,12,02,13,27,9.70
2012,12,02,13,28,9.70
2012,12,02,13,29,9.70
2012,12,02,13,30,9.70
2012,12,02,13,31,9.70
2012,12,02,13,32,9.70
2012,12,02,13,33,9.70
2012,12,02,13,34,9.70
2012,12,02,13,35,9.70
2012,12,02,13,36,9.80
2012,12,02,13,37,9.80
2012,12,02,13,38,9.80
2012,12,02,13,39,9.70
2012,12,02,13,40,9.70
2012,12,02,13,41,9.70
2012,12,02,13,42,9.80
2012,12,02,13,43,9.80
2012,12,02,13,44,9.90
2012,12,02,13,45,9.90
2012,12,02,13,46,9.90
2012,12,02,13,47,9.90
2012,12,02,13,48,9.90
2012,12,02,13,49,9.90
2012,12,02,13,50,9.90
2012,12,02,13,51,9.90
2012,12,02,13,52,9.80
2012,12,02,13,53,9.80
2012,12,02,13,54,9.80
2012,12,02,13,55,9.70
2012,12,02,13,56,9.70
2012,12,02,13,57,9.60
2012,12,02,13,58,9.60
2012,12,02,13,59,9.60
2012,12,02,14,00,9.50
2012,12,02,14,01,9.50
2012,12,02,14,02,9.40
2012,12,02,14,03,9.40
2012,12,02,14,04,9.30
2012,12,02,14,05,9.30
2012,12,02,14,06,9.20
2012,12,02,14,07,9.20
2012,12,02,14,08,9.20
2012,12,02,14,09,9.20
2012,12,02,14,10,9.10
2012,12,02,14,11,9.10
2012,12,02,14,12,9.10
2012,12,02,14,13,9.00
2012,12,02,14,14,9.00
2012,12,02,14,15,9.00
2012,12,02,14,16,8.90
2012,12,02,14,17,8.90
2012,12,02,14,18,8.90
2012,12,02,14,19,8.80
2012,12,02,14,20,8.80
2012,12,02,14,21,8.80
2012,12,02,14,22,8.80
2012,12,02,14,23,8.80
2012,12,02,14,24,8.70
2012,12,02,14,25,8.70
2012,12,02,14,26,8.70
2012,12,02,14,27,8.70
2012,12,02,14,28,8.70
2012,12,02,14,29,8.70
2012,12,02,14,30,8.70
2012,12,02,14,31,8.60
2012,12,02,14,32,8.60
2012,12,02,14,33,8.60
2012,12,02,14,34,8.60
2012,12,02,14,35,8.50
2012,12,02,14,36,8.50
2012,12,02,14,37,8.40
2012,12,02,14,38,8.40
2012,12,02,14,39,8.40
2012,12,02,14,40,8.30
2012,12,02,14,41,8.30
2012,12,02,14,42,8.20
2012,12,02,14,43,8.20
2012,12,02,14,44,8.20
2012,12,02,14,45,8.20
2012,12,02,14,46,8.20
2012,12,02,14,47,8.20
2012,12,02,14,48,8.20
2012,12,02,14,49,8.10
2012,12,02,14,50,8.10
2012,12,02,14,51,8.10
2012,12,02,14,52,8.10
2012,12,02,14,53,8.10
2012,12,02,14,54,8.00
2012,12,02,14,55,8.00
2012,12,02,14,56,8.00
2012,12,02,14,57,7.90
2012,12,02,14,58,7.90
2012,12,02,14,59,7.90
2012,12,02,15,00,7.90
2012,12,02,15,01,7.90
2012,12,02,15,02,7.90
2012,12,02,15,03,7.90
2012,12,02,15,04,7.90
2012,12,02,15,05,7.90
2012,12,02,15,06,7.90
2012,12,02,15,07,7.80
2012,12,02,15,08,7.80
2012,12,02,15,09,7.80
2012,12,02,15,10,7.80
2012,12,02,15,11,7.70
2012,12,02,15,12,7.70
2012,12,02,15,13,7.70
2012,12,02,15,14,7.70
2012,12,02,15,15,7.70
2012,12,02,15,16,7.70
2012,12,02,15,17,7.70
2012,12,02,15,18,7.70
2012,12,02,15,19,7.60
2012,12,02,15,20,7.60
2012,12,02,15,21,7.60
2012,12,02,15,22,7.60
2012,12,02,15,23,7.60
2012,12,02,15,24,7.60
2012,12,02,15,25,7.50
2012,12,02,15,26,7.50
2012,12,02,15,27,7.50
2012,12,02,15,28,7.50
2012,12,02,15,29,7.50
2012,12,02,15,30,7.50
2012,12,02,15,31,7.40
2012,12,02,15,32,7.40
2012,12,02,15,33,7.40
2012,12,02,15,34,7.40
2012,12,02,15,35,7.40
2012,12,02,15,36,7.40
2012,12,02,15,37,7.40
2012,12,02,15,38,7.30
2012,12,02,15,39,7.40
2012,12,02,15,40,7.30
2012,12,02,15,41,7.30
2012,12,02,15,42,7.30
2012,12,02,15,43,7.30
2012,12,02,15,44,7.30
2012,12,02,15,45,7.30
2012,12,02,15,46,7.30
2012,12,02,15,47,7.30
2012,12,02,15,48,7.30
2012,12,02,15,49,7.30
2012,12,02,15,50,7.30
2012,12,02,15,51,7.30
2012,12,02,15,52,7.30
2012,12,02,15,53,7.30
2012,12,02,15,54,7.30
2012,12,02,15,55,7.20
2012,12,02,15,56,7.20
2012,12,02,15,57,7.20
2012,12,02,15,58,7.20
2012,12,02,15,59,7.20
2012,12,02,16,00,7.20
2012,12,02,16,01,7.20
2012,12,02,16,02,7.20
2012,12,02,16,03,7.20
2012,12,02,16,04,7.20
2012,12,02,16,05,7.20
2012,12,02,16,06,7.20
2012,12,02,16,07,7.10
2012,12,02,16,08,7.10
2012,12,02,16,09,7.10
2012,12,02,16,10,7.10
2012,12,02,16,11,7.10
2012,12,02,16,12,7.10
2012,12,02,16,13,7.10
2012,12,02,16,14,7.10
2012,12,02,16,15,7.10
2012,12,02,16,16,7.10
2012,12,02,16,17,7.10
2012,12,02,16,18,7.10
2012,12,02,16,19,7.20
2012,12,02,16,20,7.10
2012,12,02,16,21,7.10
2012,12,02,16,22,7.20
2012,12,02,16,23,7.10
2012,12,02,16,24,7.10
2012,12,02,16,25,7.10
2012,12,02,16,26,7.10
2012,12,02,16,27,7.10
2012,12,02,16,28,7.10
2012,12,02,16,29,7.10
2012,12,02,16,30,7.10
2012,12,02,16,31,7.10
2012,12,02,16,32,7.10
2012,12,02,16,33,7.10
2012,12,02,16,34,7.10
2012,12,02,16,35,7.10
2012,12,02,16,36,7.10
2012,12,02,16,37,7.00
2012,12,02,16,38,7.10
2012,12,02,16,39,7.10
2012,12,02,16,40,7.10
2012,12,02,16,41,7.10
2012,12,02,16,42,7.10
2012,12,02,16,43,7.10
2012,12,02,16,44,7.10
2012,12,02,16,45,7.10
2012,12,02,16,46,7.10
2012,12,02,16,47,7.10
2012,12,02,16,48,7.00
2012,12,02,16,49,7.00
2012,12,02,16,50,7.00
2012,12,02,16,51,6.90
2012,12,02,16,52,6.90
2012,12,02,16,53,6.90
2012,12,02,16,54,6.90
2012,12,02,16,55,6.90
2012,12,02,16,56,6.80
2012,12,02,16,57,6.80
2012,12,02,16,58,6.80
2012,12,02,16,59,6.80
2012,12,02,17,00,6.80
2012,12,02,17,01,6.80
2012,12,02,17,02,6.80
2012,12,02,17,03,6.80
2012,12,02,17,04,6.80
2012,12,02,17,05,6.80
2012,12,02,17,06,6.80
2012,12,02,17,07,6.80
2012,12,02,17,08,6.80
2012,12,02,17,09,6.70
2012,12,02,17,10,6.70
2012,12,02,17,11,6.70
2012,12,02,17,12,6.70
2012,12,02,17,13,6.70
2012,12,02,17,14,6.70
2012,12,02,17,15,6.70
2012,12,02,17,16,6.70
2012,12,02,17,17,6.70
2012,12,02,17,18,6.60
2012,12,02,17,19,6.60
2012,12,02,17,20,6.60
2012,12,02,17,21,6.60
2012,12,02,17,22,6.60
2012,12,02,17,23,6.60
2012,12,02,17,24,6.50
2012,12,02,17,25,6.50
2012,12,02,17,26,6.50
2012,12,02,17,27,6.50
2012,12,02,17,28,6.40
2012,12,02,17,29,6.40
2012,12,02,17,30,6.40
2012,12,02,17,31,6.40
2012,12,02,17,32,6.40
2012,12,02,17,33,6.30
2012,12,02,17,34,6.30
2012,12,02,17,35,6.30
2012,12,02,17,36,6.30
2012,12,02,17,37,6.30
2012,12,02,17,38,6.30
2012,12,02,17,39,6.30
2012,12,02,17,40,6.30
2012,12,02,17,41,6.30
2012,12,02,17,42,6.30
2012,12,02,17,43,6.30
2012,12,02,17,44,6.30
2012,12,02,17,45,6.30
2012,12,02,17,46,6.30
2012,12,02,17,47,6.30
2012,12,02,17,48,6.30
2012,12,02,17,49,6.30
2012,12,02,17,50,6.30
2012,12,02,17,51,6.30
2012,12,02,17,52,6.30
2012,12,02,17,53,6.30
2012,12,02,17,54,6.30
2012,12,02,17,55,6.30
2012,12,02,17,56,6.30
2012,12,02,17,57,6.30
2012,12,02,17,58,6.30
2012,12,02,17,59,6.30
2012,12,02,18,00,6.30
2012,12,02,18,01,6.30
2012,12,02,18,02,6.30
2012,12,02,18,03,6.30
2012,12,02,18,04,6.30
2012,12,02,18,05,6.20